SCP
0 0 0 0 0 0 0 0 0 0 0 0 0 0 0 0 0 0 0 0 0 0 0 0 0 0 0 0 0 0 0 0 0 0 0 0 0 0 0 0 0 0 0
0 0 0 0 0 0 0 0 0 0 0 0 0 0 0 0 0 0 0 0 0 0 0 0 0 0 0 0 0 0 0 0 0 0 0 0 0 0 0 0 0 0 0
0 0 0 0 0 0 0 0 0 0 0 0 0 0 0 0 0 0 0 0 0 0 0 0 0 0 0 0 0 0 0 0 0 0 0 0 0 0 0 0 0 0 0
0 0 0 0 0 0 0 0 0 0 0 0 0 0 0 0 0 0 0 0 0 0 0 0 0 0 0 0 0 0 0 0 0 0 0 0 0 0 0 0 0 0 0
0 0 0 0 0 0 0 0 0 0 0 0 0 0 0 0 0 0 0 0 0 0 0 0 0 0 0 0 0 0 0 0 0 0 0 0 0 0 0 0 0 0 0
0 0 0 0 0 0 0 0 0 0 0 0 0 0 0 0 0 0 0 0 0 0 0 0 0 0 0 0 0 0 0 0 0 0 0 0 0 0 0 0 0 0 0
0 0 0 0 0 0 0 0 0 0 0 0 0 0 0 0 0 0 0 0 0 0 0 0 0 0 0 0 0 0 0 0 0 0 0 0 0 0 0 0 0 0 0
0 0 0 0 0 0 0 0 0 0 0 0 0 0 0 0 0 0 0 0 0 0 0 0 0 0 0 0 0 0 0 0 0 0 0 0 0 0 0 0 0 0 0
0 0 0 0 0 0 0 0 0 0 0 0 0 0 0 0 0 0 0 0 0 0 0 0 0 0 0 0 0 0 0 0 0 0 0 0 0 0 0 0 0 0 0
0 0 0 0 0 0 0 0 0 0 0 0 0 0 0 0 0 0 0 0 0 0 0 0 0 0 0 0 0 0 0 0 0 0 0 0 0 0 0 0 0 0 0
0 0 0 0 0 0 0 0 0 0 0 0 0 0 0 0 0 0 0 0 0 0 0 0 0 0 0 0 0 0 0 0 0 0 0 0 0 0 0 0 0 0 0
0 0 0 0 0 0 0 0 0 0 0 0 0 0 0 0 0 0 0 0 0 0 0 0 0 0 0 0 0 0 0 0 0 0 0 0 0 0 0 0 0 0 1
0 0 0 0 0 0 0 0 0 0 0 0 0 0 0 0 0 0 0 0 0 0 0 0 0 0 0 0 0 0 0 0 0 0 0 0 0 0 0 0 0 0 1
0 0 0 0 0 0 0 0 0 0 0 0 0 0 0 0 0 0 0 0 0 0 0 0 0 0 0 0 0 0 0 0 0 0 0 0 0 0 0 0 0 0 0
0 0 0 0 0 0 0 0 0 0 0 0 0 0 0 0 0 0 0 0 0 0 0 0 0 0 0 0 0 0 0 0 0 0 0 0 0 0 0 0 0 0 0
0 0 0 0 0 0 0 0 0 0 0 0 0 0 0 0 0 0 0 0 0 0 0 0 0 0 0 0 0 0 0 0 0 0 0 0 0 0 0 0 0 0 0
0 0 0 0 0 0 0 0 0 0 0 0 0 0 0 0 0 0 0 0 0 0 0 0 0 0 0 0 0 0 0 0 0 0 0 0 0 0 0 0 0 0 0
0 0 0 0 0 0 0 0 0 0 0 0 0 0 0 0 0 0 0 0 0 0 0 0 0 0 0 0 0 0 0 0 0 0 0 0 0 0 0 0 0 0 0
0 0 0 0 0 0 0 0 0 0 0 0 0 0 0 0 0 0 0 0 0 0 0 0 0 0 0 0 0 0 0 0 0 0 0 0 0 0 0 0 0 0 0
0 0 0 0 0 0 0 0 0 0 0 0 0 0 0 0 0 0 0 0 0 0 0 0 0 0 0 0 0 0 0 0 0 0 0 0 0 0 0 0 0 0 0
0 0 0 0 0 0 0 0 0 0 0 0 0 0 0 0 0 0 0 0 0 0 0 0 0 0 0 0 0 0 0 0 0 0 0 0 0 0 0 0 0 0 0
0 0 0 0 0 0 0 0 0 0 0 0 0 0 0 0 0 0 0 0 0 0 0 0 0 0 0 0 0 0 0 0 0 0 0 0 0 0 0 0 0 0 0
0 0 0 0 0 0 0 0 0 0 0 0 0 0 0 0 0 0 0 0 0 0 0 0 0 0 0 0 0 0 0 0 0 0 0 0 0 0 0 0 0 0 0
0 0 0 0 0 0 0 0 0 0 0 0 0 0 0 0 0 0 0 0 0 0 0 0 0 0 0 0 0 0 0 0 0 0 0 0 0 0 0 0 0 0 0
0 0 0 0 0 0 0 0 0 0 0 0 0 0 0 0 0 0 0 0 0 0 0 0 0 0 0 0 0 0 0 0 0 0 0 0 0 0 0 0 0 0 0
0 0 0 0 0 0 0 0 0 0 0 0 0 0 0 0 0 0 0 0 0 0 0 0 0 0 0 0 0 0 0 0 0 0 0 0 0 0 0 0 0 0 0
Wind_Speed
2 2 2 1 1 1 1 1 1 1 1 1 2 2 2 2 2 1 1 2 2 2 2 1 2 1 1 1 0 0 1 2 2 2 1 1 0 1 1 1 1 2 2
2 2 2 2 2 2 2 2 2 2 2 2 1 1 2 2 2 2 3 2 2 2 2 1 2 1 1 1 0 0 1 1 2 2 1 1 1 1 1 2 1 2 2
4 4 3 3 2 2 2 2 2 2 3 3 2 2 2 2 2 2 3 3 3 3 3 2 3 1 1 1 1 1 1 1 1 2 2 1 1 1 0 1 0 0 1
5 5 4 3 2 2 2 3 3 3 3 3 3 2 2 2 1 1 1 2 3 3 3 3 3 3 3 3 2 2 2 1 1 1 2 2 1 1 1 1 1 1 1
5 4 3 2 3 3 3 3 3 3 4 3 3 4 3 2 2 1 1 1 2 3 3 3 4 4 5 4 2 3 2 2 1 2 2 2 2 1 2 2 2 1 1
5 3 2 3 3 3 3 3 4 4 4 4 4 4 4 4 5 4 1 1 1 2 3 4 4 4 5 6 5 5 4 3 3 3 3 3 4 3 2 2 2 1 2
4 3 3 3 3 3 3 4 4 4 4 4 4 4 4 5 8 7 5 1 1 2 3 3 3 3 4 3 5 6 6 7 6 5 4 5 4 5 4 3 3 3 3
4 3 2 3 3 2 3 3 3 3 3 3 4 4 4 7 10 9 8 3 2 3 3 3 3 5 4 4 4 4 5 5 6 5 5 6 5 5 5 5 4 3 1
3 2 2 2 2 2 2 2 2 2 3 3 3 4 4 6 11 10 8 2 3 4 4 4 4 4 8 6 3 5 6 6 7 8 8 8 8 8 6 3 3 3 2
3 3 2 2 2 1 0 1 1 1 2 2 3 3 3 4 9 11 8 2 3 4 5 5 6 7 10 8 4 4 6 7 5 5 5 7 6 7 8 6 5 4 3
4 3 2 2 2 2 1 0 0 1 2 3 3 3 3 4 7 9 8 2 2 3 4 4 5 11 13 12 7 5 8 7 5 5 4 4 4 4 4 5 5 5 5
3 3 2 1 1 1 1 0 0 1 2 2 3 4 3 4 5 6 9 7 5 2 4 4 6 13 14 14 9 8 10 7 3 3 3 4 4 5 5 5 6 6 6
3 3 2 2 1 1 1 1 0 0 0 1 2 3 4 4 5 9 9 9 8 4 4 9 11 13 12 9 10 11 7 3 3 4 5 5 5 5 4 3 4 4 4
4 3 2 2 2 1 1 1 1 1 1 2 2 3 4 4 4 4 4 5 6 5 5 8 11 10 7 8 9 6 4 3 4 5 5 4 3 3 4 4 4 4 3
4 4 3 3 3 2 2 3 3 4 4 3 3 3 3 4 6 8 5 4 4 5 5 4 3 4 4 5 5 4 4 3 4 4 4 4 4 4 4 4 4 4 5
4 4 3 3 3 3 2 3 5 5 7 7 6 5 5 8 10 10 10 10 11 10 5 3 4 4 4 5 5 5 4 4 4 4 5 5 5 5 5 4 4 5 6
5 5 3 3 3 3 3 3 4 5 6 7 8 8 8 10 10 10 11 11 10 8 3 4 4 5 5 5 5 5 5 5 4 4 5 5 5 5 5 6 6 6 6
5 6 5 4 4 4 4 4 3 3 4 5 6 9 11 11 11 11 11 7 5 4 3 4 5 5 5 5 5 5 5 5 5 4 4 5 5 5 6 6 7 7 6
5 4 4 4 4 4 4 4 4 4 4 4 4 6 9 9 9 9 8 3 4 5 5 5 5 5 5 5 6 5 5 5 6 5 5 5 5 5 6 7 7 9 8
5 8 6 4 4 4 4 4 4 4 5 5 5 5 4 3 3 5 4 4 4 5 5 6 6 6 6 6 6 6 5 5 6 6 6 5 5 5 6 7 7 7 7
5 5 7 4 4 5 5 5 5 5 5 5 6 7 8 5 5 6 5 5 5 6 6 6 6 6 6 6 5 6 7 6 6 6 6 6 5 5 5 6 7 7 7
5 5 4 5 5 5 5 5 5 6 6 7 6 6 10 6 5 6 6 6 6 6 6 6 6 6 6 6 6 6 7 7 6 6 6 6 6 6 6 5 5 6 6
5 5 4 5 5 6 6 5 6 6 6 6 6 6 5 5 6 6 7 7 6 6 6 6 7 7 6 6 6 7 8 8 7 7 7 7 7 7 6 6 7 6 7
5 5 5 5 5 5 5 6 6 6 6 6 6 6 6 6 7 7 7 6 6 6 6 6 7 9 11 9 7 7 8 9 8 7 9 9 8 7 7 7 8 8 7
5 5 5 5 5 5 5 5 5 6 6 6 6 6 6 6 7 7 6 6 7 7 8 8 7 8 11 13 12 10 12 15 14 10 8 8 9 9 9 9 8 8 7
5 5 5 5 5 5 5 5 6 6 6 6 6 6 6 6 7 7 7 6 7 7 8 7 9 11 12 11 13 15 16 16 16 16 11 8 9 9 9 8 9 8 8
Wind_Direction
109 99 88 76 66 71 52 2 346 346 326 292 274 250 236 242 244 247 282 290 301 309 316 309 291 287 317 331 40 85 146 154 198 274 280 301 310 251 208 214 219 211 222
121 104 90 67 53 43 9 335 338 355 358 335 317 300 274 256 244 235 261 269 273 283 282 286 284 274 291 297 316 258 217 189 180 236 283 286 262 242 231 221 217 214 216
99 92 75 61 54 35 5 347 352 354 360 4 8 352 309 280 262 254 255 263 260 263 260 249 256 234 254 261 241 248 251 214 178 195 243 256 269 256 231 254 210 303 231
96 88 74 58 55 38 22 17 11 14 17 7 357 342 324 326 327 311 282 277 280 279 271 253 248 227 223 229 232 242 239 219 191 193 228 242 248 254 177 199 234 279 254
96 86 75 59 53 42 34 23 17 18 18 5 3 354 347 345 338 327 306 325 303 301 298 277 261 243 233 222 214 222 210 206 200 209 232 230 229 210 210 201 204 238 283
104 99 85 68 58 45 32 25 23 14 7 11 7 359 355 353 344 343 349 325 323 315 310 301 288 269 267 256 246 224 200 196 203 207 224 223 229 219 207 192 185 184 251
109 99 83 74 61 39 31 32 22 8 6 6 359 360 350 340 353 356 353 344 311 305 303 311 310 300 277 269 270 260 244 234 212 200 211 226 225 216 196 199 203 198 216
110 102 91 84 71 48 41 29 10 3 3 357 356 357 357 353 358 354 352 356 325 307 292 286 293 301 300 286 269 266 261 256 242 227 221 229 227 217 200 200 199 197 232
125 127 130 120 101 69 43 11 357 7 2 356 356 4 4 348 359 0 3 353 336 322 313 309 301 291 297 299 283 271 272 271 259 242 237 239 236 224 200 167 167 170 222
168 171 165 146 135 131 177 313 340 4 354 356 5 0 360 347 358 8 12 11 341 327 325 323 318 321 317 308 276 263 268 270 267 263 254 254 247 238 213 197 193 190 196
178 166 161 162 171 179 181 223 343 14 9 1 354 343 343 339 351 2 4 8 330 325 325 322 317 324 324 316 293 257 259 271 261 248 250 253 249 239 228 214 201 197 202
164 163 173 190 199 151 146 170 24 43 15 347 342 334 325 324 333 338 347 348 339 316 304 302 303 315 316 315 302 281 283 282 261 246 243 247 245 241 235 224 217 216 217
160 177 194 196 204 172 165 190 302 0 337 311 317 314 310 313 317 326 332 333 333 321 296 302 308 313 315 308 298 294 291 266 253 245 240 243 241 240 237 231 229 223 230
175 198 201 197 221 230 211 198 198 230 253 275 284 287 294 302 301 304 309 313 318 317 309 307 311 311 306 297 303 297 277 255 251 251 251 249 244 237 234 222 222 213 220
188 201 204 204 209 225 235 225 218 226 216 224 237 243 264 285 281 289 299 295 293 291 307 312 315 315 316 313 307 295 283 273 262 261 262 259 250 244 243 223 216 213 217
192 206 207 208 213 218 236 272 262 252 269 269 257 252 252 258 280 293 298 299 302 303 311 305 300 297 295 296 300 300 293 277 267 266 265 253 248 245 246 230 214 216 225
196 206 209 211 215 220 220 231 274 294 298 296 289 288 282 285 289 291 293 299 303 306 295 286 281 281 282 284 281 279 283 281 270 263 266 266 256 249 246 234 222 223 227
201 210 208 212 217 221 224 228 231 247 280 290 290 287 288 288 288 289 292 302 305 302 269 273 277 275 274 279 280 275 276 283 277 266 265 270 263 255 252 243 227 223 225
202 211 214 216 220 225 229 232 235 240 245 259 278 290 286 287 289 289 295 273 272 279 277 273 270 273 272 274 277 272 270 272 275 270 262 266 267 261 257 253 240 227 222
212 223 220 217 223 230 233 235 240 244 249 253 259 265 277 285 282 285 280 266 261 264 266 268 269 268 269 269 273 272 270 267 268 266 261 255 259 257 258 260 249 236 227
209 226 233 228 226 229 232 235 238 239 244 249 252 256 256 253 255 261 263 261 258 261 262 263 264 266 266 265 266 268 266 265 261 261 262 256 255 258 253 255 256 243 234
207 216 220 225 230 233 237 238 239 240 244 249 255 263 267 255 250 255 257 259 257 256 256 258 263 261 258 259 262 266 266 264 262 261 262 260 255 254 252 250 253 249 237
208 216 224 232 235 243 247 244 241 242 245 247 250 253 256 252 252 255 258 259 260 262 261 258 264 266 263 259 256 255 260 260 256 255 260 261 258 255 248 246 246 245 242
207 216 225 235 240 242 245 248 247 247 248 250 250 250 251 253 256 258 258 261 263 264 263 262 263 265 269 271 265 258 257 258 259 256 255 257 256 257 253 243 239 237 234
209 220 229 237 242 244 248 250 251 252 253 254 254 255 256 257 258 259 260 262 265 266 268 267 268 269 271 273 272 269 265 263 262 261 257 255 253 252 252 244 236 233 231
216 225 233 236 239 243 245 250 252 254 255 258 257 256 257 260 262 263 263 263 266 268 270 269 268 269 273 274 274 273 270 266 263 260 254 252 251 250 247 242 234 227 222